Location: Morgantown
(40.9734°N, 80.6323°W)
Time: 19:09:37
(UTC+00:00)

Lacrosse 5 - Pass Details

Date: 29 October 2020
Orbit: 714 x 725 km, 57.0° (Epoch: 30 November)

Event Time Altitude Azimuth Distance (km) Brightness Sun altitude
Rises 23:08:21 0° 307° (NW) 3,118 5.8 -9.4°
Reaches altitude 10° 23:12:12 10° 337° (NNW) 2,198 4.6 -10.1°
Maximum altitude 23:14:23 13° 3° (N) 2,022 4.1 -10.6°
Drops below altitude 10° 23:16:33 10° 28° (NNE) 2,198 4.0 -11.0°
Enters shadow 23:17:50 - 40° (NE) 2,439 4.2 -11.2°
